Regional Weather Roundup
Issued by NWS Goodland, KS

Home | Current Version | Previous Version | Text Only | Print | Product List | Glossary Off
Versions: 1 2 3 4 5 6 7 8 9 10 11 12 13 14 15 16 17 18 19 20 21 22 23 24 25 26 27 28 29 30 31 32 33 34 35 36 37 38 39 40 41 42 43 44 45 46 47 48 49 50

000
ASUS43 KGLD 212159
RWRGLD

GOODLAND FORECAST AREA HOURLY WEATHER ROUNDUP
NATIONAL WEATHER SERVICE GOODLAND KS
300 PM MST TUE NOV 21 2017

...OFFICIAL OBSERVATIONS...

CITY           SKY/WX    TMP DP  RH WIND       PRES   REMARKS
GOODLAND KS    SUNNY     46  26  45 N15G23    30.32R
HILL CITY KS   SUNNY     48  19  31 N20G29    30.33R
IMPERIAL NEB   SUNNY     47  25  42 N8        30.32R
MCCOOK NEB     SUNNY     45  21  38 N12       30.33R
AKRON CO       SUNNY     45  26  47 NW6       30.30F
BURLINGTON CO  SUNNY     47  28  47 N15G22    30.32R
LIMON CO       SUNNY     46  27  47 N9        30.30F
$$

...UNOFFICIAL OBSERVATIONS...

CITY           SKY/WX    TMP DP  RH WIND       PRES   REMARKS
LENORA KS        N/A     45  32  60 N10         N/A
NORTON KS      SUNNY     45   9  23 N20G26    30.32
SHARON SPRINGS   N/A     48  29  47 N13G22      N/A
YUMA CO        FAIR      43  28  56 N6        30.31F
$$




USA.gov is the U.S. government's official web portal to all federal, state and local government web resources and services.